Theta_e
343 343 343 343 343 345 345 344 345 344 347 351 353 354 355 355 354 356 353 354 355 354 354 355 354 353 355 357 356 356 354 353 358 355 351 352 350 350 351 353 352 348 344
345 343 343 342 343 344 345 343 342 344 345 351 353 354 354 352 352 354 352 354 354 354 353 353 354 352 355 353 352 352 356 358 357 354 353 354 350 350 352 351 350 348 346
346 345 343 342 342 344 346 345 343 343 345 348 353 352 352 351 354 355 356 354 354 354 354 353 353 353 353 357 353 355 354 357 357 352 352 355 354 353 353 351 348 347 345
346 346 344 343 343 344 346 347 345 344 345 347 352 353 351 350 351 355 355 354 352 353 354 355 355 352 354 354 353 357 355 357 358 357 356 357 356 357 357 352 345 344 341
346 345 344 343 343 344 345 346 346 345 346 346 348 352 351 353 353 355 353 353 353 353 353 355 354 353 353 353 351 353 355 359 359 357 357 358 357 354 353 356 351 345 341
345 345 343 342 343 343 345 346 347 344 345 346 346 345 349 354 355 355 354 354 356 355 351 353 355 352 352 353 354 354 356 356 357 356 358 358 357 355 354 353 348 347 341
344 344 345 342 343 343 344 346 348 347 345 346 346 346 345 348 353 353 354 354 352 354 355 351 355 356 355 353 353 356 357 357 357 358 358 358 358 356 355 349 349 345 339
344 344 344 343 343 343 344 345 347 349 348 345 345 345 346 352 352 353 353 354 352 351 354 351 354 354 355 355 355 360 357 353 356 359 361 358 356 358 354 350 349 345 339
343 344 343 342 342 343 344 345 346 348 349 346 346 345 345 347 351 349 349 353 351 351 349 352 354 355 356 353 354 357 354 354 356 359 360 357 357 355 353 350 347 346 346
350 343 342 342 342 342 343 344 345 347 347 347 347 347 345 345 346 349 349 351 351 350 347 351 355 354 356 353 352 354 354 355 360 359 359 358 355 352 348 350 348 344 342
346 344 341 342 342 342 343 343 344 346 348 348 348 350 351 350 348 349 348 348 350 348 349 348 346 347 353 354 353 352 355 358 362 359 358 356 352 351 347 348 346 345 343
353 352 349 347 346 346 347 346 347 348 348 348 348 347 345 350 351 353 353 352 351 351 350 351 351 351 353 351 353 358 360 361 362 360 357 354 350 348 346 348 345 342 339
357 357 357 358 358 358 358 357 356 353 351 351 352 347 347 348 352 353 353 355 356 354 355 355 354 352 355 354 353 358 361 362 361 360 357 353 351 350 348 347 344 341 336
350 350 348 347 350 351 353 352 352 354 354 353 354 354 356 354 354 355 355 358 359 359 358 357 356 358 358 358 358 360 361 362 361 359 355 352 350 350 349 347 344 337 335
339 339 338 339 337 337 338 339 337 338 339 340 342 350 358 359 359 359 359 357 356 358 357 359 359 359 359 358 359 359 360 361 360 357 353 350 348 346 348 345 340 337 336
339 338 338 337 337 336 335 335 336 337 334 335 335 332 331 338 340 341 348 355 358 360 358 356 356 360 359 355 353 353 356 359 360 358 353 350 345 345 345 344 341 339 336
337 337 337 336 335 335 335 335 335 335 334 336 335 333 329 329 325 324 327 336 342 350 356 360 361 361 360 357 355 354 356 359 359 356 352 347 345 343 344 343 341 338 334
330 331 330 329 329 331 331 333 333 334 334 335 336 336 335 333 334 333 333 334 337 338 342 350 357 361 361 357 356 355 356 360 358 356 352 349 345 343 343 339 338 336 333
329 329 328 328 327 327 328 329 329 329 328 329 332 335 335 335 333 334 332 329 331 335 339 343 351 357 361 360 357 356 356 357 358 354 352 348 345 342 341 341 339 335 334
327 326 325 325 324 322 321 323 325 324 328 328 330 331 334 336 336 337 337 335 334 333 332 339 340 350 353 358 357 356 356 356 355 353 349 346 345 340 341 342 338 335 335
322 322 322 322 322 321 321 322 322 323 323 324 324 325 329 332 331 336 335 332 336 336 335 337 339 338 346 349 351 351 356 355 354 350 346 344 343 341 341 341 338 336 335
321 320 320 320 320 320 320 320 320 321 322 324 325 326 327 327 328 332 335 338 338 336 336 336 337 338 341 343 344 344 348 352 350 348 344 343 344 341 340 340 337 335 333
319 318 318 318 318 318 318 319 319 319 319 321 324 325 325 326 327 329 332 333 333 334 332 331 334 337 338 338 338 340 343 348 339 343 344 342 343 341 339 338 336 332 333
317 317 317 317 318 318 318 319 319 319 320 320 321 322 323 324 325 325 326 330 331 331 331 331 332 331 335 338 336 337 337 339 338 340 341 341 342 340 337 337 335 332 334
317 317 318 318 318 318 318 318 318 319 320 320 320 321 320 321 324 325 324 325 328 330 330 332 332 331 333 335 338 336 336 339 338 339 337 337 335 337 337 336 333 333 334
317 317 318 318 318 318 318 318 318 318 319 320 320 320 319 320 321 324 325 325 326 325 326 326 331 332 332 333 334 332 332 334 332 335 336 335 336 338 338 337 335 335 333
Wind_Speed
21 20 20 20 19 19 22 24 24 25 21 14 11 12 13 12 11 10 9 10 9 7 8 8 8 9 8 8 9 9 11 12 10 12 17 13 7 5 14 7 5 5 6
16 18 18 19 21 21 23 25 27 24 25 18 15 11 10 11 11 10 10 8 5 4 3 6 9 9 9 9 9 10 10 9 9 8 12 6 7 4 10 6 6 8 8
17 16 16 19 20 22 24 27 29 27 25 24 17 14 12 12 9 9 6 6 4 4 7 9 12 13 13 12 10 11 12 11 9 10 4 5 6 17 4 4 6 9 10
17 15 15 16 20 25 21 22 26 27 25 25 18 18 15 14 13 10 8 7 6 7 8 12 13 11 12 13 14 11 13 10 11 9 2 4 6 4 6 4 7 9 7
18 17 18 21 23 19 21 20 23 25 26 25 24 18 17 13 12 9 11 10 9 9 10 13 11 11 12 13 16 15 14 10 9 9 8 8 6 6 4 5 7 6 6
18 17 19 17 18 16 17 18 22 27 27 27 26 24 20 16 13 13 13 12 11 11 13 12 10 9 13 15 16 14 14 12 9 9 7 9 10 11 4 3 2 6 2
15 16 15 18 18 20 21 20 21 26 27 27 27 26 25 22 19 18 15 15 15 13 11 12 10 10 12 13 10 11 12 11 8 8 9 9 11 9 7 4 2 2 1
13 15 16 20 20 20 21 21 22 24 26 27 31 29 27 21 20 20 19 17 16 16 15 14 10 7 8 8 9 8 10 9 8 7 8 10 9 7 7 3 3 2 3
9 12 14 17 17 19 22 23 22 21 24 27 26 28 26 25 22 24 23 20 21 18 17 15 14 14 13 12 13 10 10 9 10 8 6 7 7 5 7 5 4 4 1
5 8 10 14 16 16 17 19 20 21 21 23 24 24 26 26 26 23 25 24 22 21 19 18 17 16 17 15 14 11 10 11 9 8 6 6 6 5 6 4 3 4 3
7 2 5 7 9 10 12 14 14 16 16 17 17 18 18 20 22 24 25 26 24 24 23 21 21 21 18 16 15 13 12 11 9 6 6 5 4 4 3 3 3 3 3
13 13 12 10 8 6 3 4 8 10 12 13 13 13 16 16 17 19 19 19 22 22 22 22 20 20 19 18 16 15 11 11 9 9 7 6 4 3 3 4 3 3 4
16 16 17 17 16 15 13 8 4 4 7 7 4 11 14 12 13 15 16 16 16 17 17 17 20 20 20 17 16 15 13 11 11 9 7 7 6 5 5 6 4 5 5
17 17 17 19 19 19 19 20 20 18 14 12 8 2 2 6 8 9 10 10 11 13 14 15 17 17 17 16 15 15 14 13 10 11 11 9 8 7 8 7 7 7 7
18 17 17 17 20 22 23 24 24 23 21 23 20 15 11 9 6 4 5 6 8 10 11 12 14 14 15 17 16 16 16 15 13 13 13 13 11 10 10 9 10 12 10
16 15 15 18 17 17 18 19 19 18 19 20 18 17 16 13 11 10 10 9 7 6 9 13 16 13 16 19 21 21 16 16 17 17 17 14 10 9 10 10 9 12 15
14 14 13 15 13 13 12 13 11 12 14 13 12 13 14 14 15 15 14 13 12 10 9 10 11 15 18 21 20 19 19 20 21 24 20 9 10 11 12 12 11 13 14
12 10 12 12 12 10 11 9 9 9 9 8 8 8 10 12 13 14 14 14 14 14 14 14 14 16 18 21 19 20 23 23 29 26 24 21 17 15 14 14 15 16 15
8 9 9 8 9 11 12 12 12 12 12 12 12 11 12 12 13 13 16 17 18 17 15 15 17 18 20 21 20 22 25 27 32 28 28 26 18 16 17 15 16 15 13
5 6 7 8 9 13 15 14 13 15 14 15 15 15 14 13 13 12 12 13 13 16 18 20 19 19 22 25 26 25 27 29 31 28 21 26 18 14 21 18 18 18 16
6 7 8 9 11 13 15 15 15 16 18 18 18 18 17 17 18 17 17 17 15 14 15 19 22 25 23 23 24 25 28 30 28 26 16 18 21 16 19 22 19 17 17
5 7 9 11 12 13 13 14 16 18 18 19 19 18 18 18 18 18 19 18 16 16 16 17 20 22 22 23 21 20 28 24 18 18 16 15 21 19 19 24 20 18 16
11 13 14 17 16 15 15 19 22 21 21 21 21 20 20 20 19 18 19 19 18 18 19 21 19 20 19 21 21 18 32 36 20 13 9 13 20 22 20 24 21 18 15
13 15 16 18 20 20 20 20 21 22 23 25 24 23 22 23 23 23 21 20 20 21 21 21 21 22 20 14 16 15 22 32 28 16 13 12 22 26 20 24 20 18 16
14 15 17 19 23 23 24 25 25 25 26 26 26 26 25 25 23 23 24 23 23 23 22 22 22 21 22 19 16 14 11 12 8 9 9 13 17 19 18 17 18 22 17
18 19 20 21 24 24 26 26 25 26 27 28 25 25 25 24 24 23 24 25 27 29 29 28 28 24 25 27 18 12 11 13 11 8 9 12 19 20 22 21 18 22 20
Wind_Direction
218 217 222 222 218 218 223 226 223 226 223 223 223 226 234 244 253 258 277 292 305 292 277 274 286 303 301 310 327 327 327 330 327 329 331 320 310 306 341 332 338 327 316
219 217 220 216 221 223 223 226 226 224 223 219 217 218 234 249 246 257 272 301 299 305 279 289 293 295 297 306 321 330 327 325 336 337 326 330 342 310 334 352 346 329 325
218 225 220 217 222 223 222 222 223 224 222 220 218 229 240 242 242 249 267 307 309 293 277 293 295 290 291 289 296 305 325 325 327 336 331 325 338 334 36 16 358 343 331
221 226 226 225 219 227 223 222 223 219 220 221 219 222 227 232 232 236 254 275 299 306 308 298 298 282 285 292 306 295 321 307 319 329 306 279 292 327 325 -0 352 349 352
217 222 223 225 227 225 219 215 218 218 217 219 222 225 234 244 244 245 253 262 276 282 304 319 293 273 283 289 296 299 312 302 302 324 325 319 309 263 269 310 332 347 14
220 224 226 226 223 220 216 212 211 218 219 221 224 227 229 236 244 250 258 268 273 278 284 308 301 278 284 292 289 293 300 301 299 314 305 306 317 314 286 265 279 325 346
212 218 212 209 211 208 210 208 211 215 218 220 224 230 233 237 242 250 256 262 272 276 286 291 304 286 292 301 296 286 287 296 304 300 302 308 306 295 287 265 270 290 268
213 218 215 212 208 208 208 209 211 218 219 219 227 232 236 236 241 247 249 258 268 272 279 285 281 293 300 301 293 280 287 296 299 298 290 308 307 295 279 256 285 260 220
218 223 219 214 211 205 207 208 214 219 221 225 229 234 237 238 240 249 254 255 263 264 271 273 269 272 281 285 283 276 289 296 295 287 279 296 307 304 295 273 264 259 223
301 234 216 207 209 212 210 212 217 221 225 226 229 234 237 243 248 251 256 256 262 262 258 258 264 271 277 280 274 273 283 292 290 293 285 300 313 301 302 278 269 224 201
30 169 195 189 200 202 208 214 216 221 224 229 230 234 244 253 257 257 260 263 265 264 265 263 260 261 267 272 273 263 275 281 280 277 265 275 284 288 281 250 231 219 215
67 69 70 75 84 99 129 205 224 230 234 236 238 247 257 260 261 265 268 269 269 271 268 264 262 262 260 260 262 254 264 275 276 260 248 263 270 265 251 218 210 181 194
71 70 66 62 63 67 69 66 53 275 255 242 232 249 261 265 283 280 280 279 274 274 269 263 261 259 257 257 254 248 261 267 268 256 248 251 242 236 219 209 195 156 178
75 73 68 62 56 59 60 59 56 56 67 85 91 53 328 298 289 289 279 274 274 274 270 265 262 260 255 252 244 241 252 260 257 245 238 236 233 227 215 200 183 158 153
74 70 70 66 60 61 62 61 59 57 61 68 67 60 53 49 39 356 310 280 270 270 274 270 266 264 257 252 239 241 247 253 248 239 235 237 231 223 208 195 184 165 165
76 74 72 67 58 57 59 61 59 56 57 58 57 53 50 44 36 24 12 0 356 330 289 275 271 262 254 253 261 249 241 240 238 236 235 230 231 233 216 209 201 194 172
74 69 64 61 50 49 42 51 51 51 51 49 44 37 33 26 18 11 8 357 353 350 331 300 281 268 259 262 258 255 235 229 231 235 229 207 205 216 213 201 189 192 194
73 62 58 48 35 31 27 25 30 28 25 26 19 14 11 8 1 357 353 346 343 344 335 320 302 283 272 264 254 240 232 229 234 237 230 209 207 199 196 192 182 185 193
65 53 44 33 19 11 4 5 0 353 353 351 344 342 340 338 336 330 334 339 336 336 333 321 308 291 281 274 254 228 221 227 235 229 231 220 192 194 202 193 184 178 183
58 31 4 347 358 355 351 345 346 336 336 332 326 316 309 302 296 297 304 312 321 324 325 317 312 300 288 278 275 245 219 221 225 229 230 220 200 198 201 196 188 183 182
16 354 347 340 334 335 338 332 324 312 313 307 305 303 300 296 291 291 291 293 300 307 315 310 306 300 295 286 280 270 234 230 220 217 218 204 204 200 205 195 192 195 183
346 335 320 311 308 305 305 297 291 292 295 292 287 286 286 286 282 281 280 279 285 298 303 301 298 295 294 287 279 262 247 243 251 245 250 227 210 201 202 199 197 193 190
328 323 313 307 300 298 292 290 288 292 292 287 279 278 281 280 279 279 280 280 280 283 286 289 291 291 289 284 283 265 242 247 272 242 257 239 217 201 195 195 197 189 187
311 310 307 305 304 307 305 298 300 301 296 292 287 282 281 280 280 279 277 274 270 273 276 277 280 286 283 277 275 263 255 261 260 264 278 239 206 195 188 189 197 188 198
313 310 304 300 298 301 300 301 301 300 294 289 287 285 284 280 277 275 272 268 266 263 270 273 274 281 280 280 270 268 266 260 247 226 205 193 182 183 189 188 192 197 195
306 302 298 295 294 293 291 292 290 289 290 290 288 284 284 281 279 278 277 273 273 274 279 278 267 266 267 269 269 263 272 247 231 215 221 207 189 192 191 190 192 200 195